Powrót do katalogu

YAOGAN-37

AktywnyMilitariaVLEO
NORAD 55244·PAYLOAD·🇨🇳 China

Wystrzelony Jan 13, 2023 z Jiuquan Satellite Launch Center

Loading…

Następne Przeloty (najbliższe 24 godziny)

TLE

ŚwieżeSource: Space-Track

Epoka: Sep 14, 2026, 14:22 UTC

1 55244U 23006C   26257.59907824  .00004285  00000-0  21850-3 0  9995
2 55244  43.1984 347.0179 0016901 219.9824 139.9784 15.17895428203460

Śledź YAOGAN-37 w czasie rzeczywistym z AllMySat

Download on the App Store